When you browse on this site, cookies collect data to enhance your experience and personalize the content and advertising you see.
Visit our Privacy Policy to learn more. By continuing to use the site, you agree to this use of cookies and data.
  • In Romania
  • List of Countries
  • For 7 days
  • Water Temperature
  • Satellite Maps
  • Weather Map
  • Weather Widgets
  • user-avatar
    Login

    Hourly Weather Larisa

    Today, 24 May, Friday

    Time Temperature Precipitation Wind Pressure Humidity
    00:00 +19°C° 0.6 mm 1 mps 750 mmHg 79%
    01:00 +18°C° 0.6 mm 2 mps 750 mmHg 81%
    02:00 +19°C° 0.1 mm 1 mps 750 mmHg 82%
    03:00 +18°C° 0.1 mm 1 mps 750 mmHg 82%
    04:00 +18°C° 0.1 mm 1 mps 750 mmHg 82%
    05:00 +19°C° 0.1 mm 1 mps 750 mmHg 76%
    06:00 +20°C° 0.1 mm 1 mps 750 mmHg 70%
    07:00 +21°C° 0.1 mm 1 mps 751 mmHg 64%
    08:00 +23°C° 0 mm 1 mps 751 mmHg 58%
    09:00 +24°C° 0 mm 1 mps 751 mmHg 52%
    10:00 +26°C° 0 mm 1 mps 751 mmHg 46%
    11:00 +26°C° 0.1 mm 1 mps 751 mmHg 44%
    12:00 +27°C° 0.1 mm 1 mps 751 mmHg 42%
    13:00 +28°C° 0.1 mm 1 mps 750 mmHg 39%
    14:00 +28°C° 0 mm 1 mps 750 mmHg 40%
    15:00 +27°C° 0 mm 1 mps 750 mmHg 42%
    16:00 +27°C° 0 mm 1 mps 750 mmHg 43%
    17:00 +25°C° 0 mm 1 mps 750 mmHg 47%
    18:00 +24°C° 0 mm 1 mps 750 mmHg 52%
    19:00 +23°C° 0 mm 1 mps 751 mmHg 56%
    20:00 +22°C° 0 mm 1 mps 751 mmHg 59%
    21:00 +21°C° 0 mm 1 mps 751 mmHg 63%
    22:00 +20°C° 0 mm 1 mps 752 mmHg 66%
    23:00 +19°C° 0 mm 1 mps 752 mmHg 69%

    Tomorrow, 25 May, Saturday

    Time Temperature Precipitation Wind Pressure Humidity
    00:00 +19°C° 0 mm 1 mps 752 mmHg 71%
    01:00 +18°C° 0 mm 1 mps 752 mmHg 74%
    02:00 +18°C° 0 mm 1 mps 752 mmHg 75%
    03:00 +16°C° 0 mm 1 mps 752 mmHg 77%
    04:00 +16°C° 0 mm 1 mps 752 mmHg 78%
    05:00 +18°C° 0 mm 1 mps 752 mmHg 73%
    06:00 +20°C° 0 mm 1 mps 752 mmHg 67%
    07:00 +21°C° 0 mm 1 mps 753 mmHg 62%
    08:00 +23°C° 0 mm 1 mps 753 mmHg 55%
    09:00 +25°C° 0 mm 1 mps 753 mmHg 48%
    10:00 +27°C° 0 mm 1 mps 753 mmHg 41%
    11:00 +28°C° 0 mm 1 mps 753 mmHg 39%
    12:00 +28°C° 0 mm 1 mps 753 mmHg 36%
    13:00 +29°C° 0 mm 1 mps 753 mmHg 33%
    14:00 +29°C° 0 mm 1 mps 752 mmHg 34%
    15:00 +29°C° 0 mm 1 mps 752 mmHg 34%
    16:00 +29°C° 0 mm 1 mps 752 mmHg 34%
    17:00 +27°C° 0 mm 1 mps 752 mmHg 41%
    18:00 +26°C° 0 mm 2 mps 752 mmHg 48%
    19:00 +24°C° 0 mm 2 mps 753 mmHg 56%
    20:00 +23°C° 0 mm 2 mps 753 mmHg 59%
    21:00 +22°C° 0 mm 1 mps 753 mmHg 62%
    22:00 +21°C° 0 mm 1 mps 754 mmHg 65%
    23:00 +21°C° 0 mm 1 mps 754 mmHg 65%

    Day after tomorrow, 26 May, Sunday

    Time Temperature Precipitation Wind Pressure Humidity
    00:00 +21°C° 0 mm 1 mps 753 mmHg 65%
    01:00 +20°C° 0 mm 1 mps 753 mmHg 65%
    02:00 +20°C° 0 mm 1 mps 753 mmHg 66%
    03:00 +20°C° 0 mm 1 mps 753 mmHg 67%
    04:00 +19°C° 0 mm 1 mps 753 mmHg 68%
    05:00 +21°C° 0 mm 1 mps 753 mmHg 64%
    06:00 +20°C° 0 mm 0 mps 754 mmHg 60%
    07:00 +22°C° 0 mm 0 mps 754 mmHg 56%
    08:00 +25°C° 0 mm 1 mps 754 mmHg 53%
    09:00 +27°C° 0 mm 2 mps 754 mmHg 49%
    10:00 +28°C° 0 mm 2 mps 754 mmHg 46%
    11:00 +28°C° 0 mm 3 mps 754 mmHg 45%
    12:00 +29°C° 0 mm 3 mps 753 mmHg 43%
    13:00 +30°C° 0 mm 3 mps 753 mmHg 41%
    14:00 +30°C° 0 mm 3 mps 753 mmHg 43%
    15:00 +29°C° 0 mm 3 mps 753 mmHg 44%
    16:00 +29°C° 0 mm 3 mps 753 mmHg 45%
    17:00 +27°C° 0 mm 3 mps 753 mmHg 50%
    18:00 +25°C° 0 mm 3 mps 753 mmHg 56%
    19:00 +23°C° 0 mm 2 mps 753 mmHg 62%
    20:00 +23°C° 0 mm 2 mps 754 mmHg 63%
    21:00 +22°C° 0 mm 1 mps 754 mmHg 64%
    22:00 +21°C° 0 mm 1 mps 754 mmHg 65%
    23:00 +21°C° 0 mm 1 mps 754 mmHg 65%

    27 May, Monday

    Time Temperature Precipitation Wind Pressure Humidity
    00:00 +21°C° 0 mm 1 mps 754 mmHg 65%
    01:00 +20°C° 0 mm 1 mps 754 mmHg 65%
    02:00 +20°C° 0 mm 1 mps 753 mmHg 65%
    03:00 +20°C° 0 mm 1 mps 753 mmHg 66%
    04:00 +20°C° 0 mm 1 mps 753 mmHg 66%
    05:00 +21°C° 0 mm 1 mps 753 mmHg 63%
    06:00 +22°C° 0 mm 1 mps 753 mmHg 60%
    07:00 +23°C° 0 mm 1 mps 753 mmHg 57%
    08:00 +25°C° 0 mm 2 mps 753 mmHg 52%
    09:00 +26°C° 0 mm 2 mps 753 mmHg 48%
    10:00 +27°C° 0 mm 3 mps 753 mmHg 43%
    11:00 +28°C° 0 mm 3 mps 753 mmHg 41%
    12:00 +29°C° 0 mm 3 mps 753 mmHg 38%
    13:00 +30°C° 0 mm 3 mps 752 mmHg 36%
    14:00 +29°C° 0 mm 3 mps 752 mmHg 38%
    15:00 +29°C° 0 mm 4 mps 752 mmHg 40%
    16:00 +29°C° 0 mm 4 mps 751 mmHg 42%
    17:00 +27°C° 0 mm 3 mps 751 mmHg 48%
    18:00 +25°C° 0 mm 3 mps 752 mmHg 53%
    19:00 +23°C° 0 mm 2 mps 752 mmHg 59%
    20:00 +21°C° 0 mm 2 mps 752 mmHg 61%
    21:00 +22°C° 0 mm 1 mps 752 mmHg 63%
    22:00 +21°C° 0 mm 1 mps 752 mmHg 64%
    23:00 +20°C° 0 mm 1 mps 752 mmHg 66%

    28 May, Tuesday

    Time Temperature Precipitation Wind Pressure Humidity
    00:00 +20°C° 0 mm 1 mps 751 mmHg 67%
    01:00 +17°C° 0 mm 0 mps 751 mmHg 68%
    02:00 +17°C° 0 mm 0 mps 751 mmHg 70%
    03:00 +19°C° 0 mm 1 mps 751 mmHg 71%
    04:00 +19°C° 0 mm 1 mps 751 mmHg 72%
    05:00 +20°C° 0 mm 1 mps 751 mmHg 67%
    06:00 +20°C° 0 mm 0 mps 751 mmHg 62%
    07:00 +22°C° 0 mm 0 mps 751 mmHg 58%
    08:00 +25°C° 0 mm 1 mps 751 mmHg 52%
    09:00 +27°C° 0 mm 1 mps 751 mmHg 46%
    10:00 +29°C° 0 mm 1 mps 751 mmHg 40%
    11:00 +30°C° 0 mm 1 mps 750 mmHg 37%
    12:00 +31°C° 0 mm 2 mps 750 mmHg 34%
    13:00 +31°C° 0 mm 3 mps 750 mmHg 31%
    14:00 +31°C° 0 mm 3 mps 750 mmHg 31%
    15:00 +32°C° 0 mm 4 mps 750 mmHg 32%
    16:00 +32°C° 0 mm 4 mps 750 mmHg 32%
    17:00 +29°C° 0 mm 4 mps 750 mmHg 38%
    18:00 +27°C° 0 mm 4 mps 750 mmHg 44%
    19:00 +25°C° 0 mm 4 mps 750 mmHg 49%
    20:00 +24°C° 0 mm 3 mps 751 mmHg 53%
    21:00 +21°C° 0 mm 3 mps 751 mmHg 58%
    22:00 +20°C° 0 mm 2 mps 751 mmHg 62%
    23:00 +19°C° 0 mm 2 mps 752 mmHg 65%

    29 May, Wednesday

    Time Temperature Precipitation Wind Pressure Humidity
    00:00 +19°C° 0 mm 2 mps 752 mmHg 68%
    01:00 +18°C° 0 mm 2 mps 752 mmHg 71%
    02:00 +18°C° 0 mm 2 mps 752 mmHg 72%
    03:00 +17°C° 0 mm 2 mps 752 mmHg 73%
    04:00 +17°C° 0 mm 2 mps 752 mmHg 74%
    05:00 +19°C° 0 mm 2 mps 753 mmHg 68%
    06:00 +20°C° 0 mm 2 mps 753 mmHg 63%
    07:00 +23°C° 0 mm 2 mps 753 mmHg 57%
    08:00 +25°C° 0 mm 2 mps 753 mmHg 52%
    09:00 +27°C° 0 mm 2 mps 753 mmHg 47%
    10:00 +28°C° 0 mm 2 mps 753 mmHg 42%
    11:00 +29°C° 0 mm 2 mps 753 mmHg 39%
    12:00 +31°C° 0 mm 2 mps 753 mmHg 37%
    13:00 +32°C° 0 mm 2 mps 753 mmHg 34%
    14:00 +32°C° 0 mm 2 mps 753 mmHg 34%
    15:00 +32°C° 0 mm 1 mps 753 mmHg 34%
    16:00 +32°C° 0 mm 1 mps 753 mmHg 34%
    17:00 +30°C° 0 mm 1 mps 753 mmHg 39%
    18:00 +28°C° 0 mm 1 mps 753 mmHg 44%
    19:00 +26°C° 0 mm 1 mps 754 mmHg 50%
    20:00 +25°C° 0 mm 1 mps 754 mmHg 53%
    21:00 +24°C° 0 mm 1 mps 754 mmHg 56%
    22:00 +24°C° 0 mm 1 mps 755 mmHg 58%
    23:00 +23°C° 0 mm 1 mps 755 mmHg 60%
    Show more